Location: Cantaing
(50.1487°N, 3.1675°E)
Time: 22:22:45
(UTC+00:00)

Cosmos 2082 Rocket - Pass Details

Date: 13 April 2026
Orbit: 831 x 853 km, 71.0° (Epoch: 19 May)

Event Time Altitude Azimuth Distance (km) Brightness Sun altitude
Exits shadow 03:11:10 25° 219° (SW) 1,664 3.2 -16.2°
Maximum altitude 03:14:37 75° 301° (WNW) 887 2.2 -15.8°
Drops below altitude 10° 03:20:22 10° 27° (NNE) 2,494 5.6 -15.0°
Sets 03:22:51 0° 29° (NNE) 3,434 6.6 -14.7°
